Quillayute, WA

11:13 PM PST on December 16, 2017 (GMT -0800)
Quillayute

Weather History for KUIL - January, 2013

Change the Weather History Date:

Saturday, January 19, 2013

  Actual Average Record
Temperature  
Mean Temperature 41 °F 42 °F  
Max Temperature 56 °F 47 °F 62 °F (1981)
Min Temperature 25 °F 36 °F 18 °F (1984)
Degree Days  
Heating Degree Days 24 23  
Month to date heating degree days 449  
Since 1 July heating degree days 2927  
Cooling Degree Days 0 0  
Month to date cooling degree days 0  
Year to date cooling degree days 0  
Moisture  
Dew Point 31 °F    
Average Humidity 87    
Maximum Humidity 100    
Minimum Humidity 50    
Precipitation  
Precipitation 0.00 in 0.48 in 3.26 in (1968)
Month to date precipitation 9.24  
Year to date precipitation 9.24  
Sea Level Pressure  
Sea Level Pressure 30.28 in    
Wind  
Wind Speed 2 mph (NNE)    
Max Wind Speed 7 mph    
Max Gust Speed 13 mph    
Visibility 4 miles    
Events      
T = Trace of Precipitation, MM = Missing Value Source: NWS Daily Summary

Daily Weather History Graph

Daily Weather History Graph

Search for Another Location

Airport or City:

Trip Planner

Search our weather history database for the weather conditions in past years. The results will help you decide how hot, cold, wet, or windy it might be!

Date:

Astronomy

Jan. 19, 2013 Rise Set
Actual Time 7:59 AM PST 4:59 PM PST
Civil Twilight 7:25 AM PST 5:33 PM PST
Nautical Twilight 6:46 AM PST 6:11 PM PST
Astronomical Twilight 6:09 AM PST 6:48 PM PST
Moon 11:33 AM PST (1/19) 1:33 AM PST (1/19)
Length of Visible Light 10h 08m
Length of Day
8h 59m
First Quarter, 58% of the Moon is Illuminated
Jan 19
First Quarter
Jan 26
Full
Feb 3
Last Quarter
Feb 9
New
Feb 17
First Quarter

Hourly Weather History & Observations

Time (PST) Temp. Windchill Dew Point Humidity Pressure Visibility Wind Dir Wind Speed Gust Speed Precip Events Conditions
12:01 AM 28.4 °F - 28.4 °F 100% 30.27 in 2.0 mi Calm Calm - N/A   Clear
12:07 AM 28.4 °F - 28.4 °F 100% 30.27 in 0.8 mi Calm Calm - N/A   Clear
12:17 AM 28.4 °F - 26.6 °F 93% 30.27 in 1.5 mi Calm Calm - N/A   Clear
12:24 AM 28.4 °F - 28.4 °F 100% 30.27 in 2.5 mi Calm Calm - N/A   Clear
12:39 AM 28.4 °F - 26.6 °F 93% 30.27 in 1.8 mi Calm Calm - N/A   Clear
12:49 AM 28.4 °F - 26.6 °F 93% 30.27 in 2.5 mi Calm Calm - N/A   Clear
12:53 AM 28.9 °F - 28.0 °F 96% 30.28 in 1.8 mi Calm Calm - N/A   Clear
1:01 AM 28.4 °F - 28.4 °F 100% 30.27 in 1.2 mi Calm Calm - N/A   Clear
1:05 AM 28.4 °F - 26.6 °F 93% 30.27 in 2.5 mi Calm Calm - N/A   Clear
1:29 AM 28.4 °F - 26.6 °F 93% 30.27 in 4.0 mi Calm Calm - N/A   Clear
1:53 AM 28.0 °F - 27.0 °F 96% 30.28 in 4.0 mi Calm Calm - N/A   Clear
2:53 AM 30.0 °F - 28.9 °F 96% 30.29 in 5.0 mi Calm Calm - N/A   Clear
3:53 AM 30.0 °F - 28.0 °F 92% 30.28 in 5.0 mi Calm Calm - N/A   Clear
4:53 AM 28.0 °F 24.2 °F 27.0 °F 96% 30.28 in 4.0 mi North 3.5 mph - N/A   Clear
5:53 AM 28.0 °F - 27.0 °F 96% 30.27 in 5.0 mi Calm Calm - N/A   Clear
6:53 AM 30.0 °F - 28.9 °F 96% 30.27 in 5.0 mi Calm Calm - N/A   Clear
7:51 AM 26.6 °F - 24.8 °F 93% 30.27 in 2.0 mi Calm Calm - N/A   Clear
7:53 AM 26.1 °F - 24.1 °F 92% 30.28 in 2.0 mi Calm Calm - N/A   Clear
8:25 AM 28.4 °F - 26.6 °F 93% 30.28 in 3.0 mi Calm Calm - N/A   Clear
8:53 AM 30.0 °F - 28.9 °F 96% 30.29 in 4.0 mi Calm Calm - N/A   Clear
9:53 AM 37.0 °F - 33.1 °F 86% 30.31 in 4.0 mi Calm Calm - N/A   Clear
10:53 AM 43.0 °F - 36.0 °F 76% 30.31 in 5.0 mi Calm Calm - N/A   Haze
11:53 AM 46.9 °F - 36.0 °F 66% 30.29 in 5.0 mi North 3.5 mph - N/A   Haze
12:53 PM 50.0 °F - 37.0 °F 61% 30.27 in 5.0 mi NNE 3.5 mph - N/A   Haze
1:53 PM 54.0 °F - 39.0 °F 57% 30.27 in 5.0 mi North 4.6 mph - N/A   Haze
2:53 PM 55.9 °F - 39.0 °F 53% 30.26 in 5.0 mi NNE 3.5 mph - N/A   Haze
3:53 PM 53.1 °F - 39.9 °F 61% 30.26 in 5.0 mi NNE 5.8 mph - N/A   Haze
4:53 PM 46.0 °F - 39.0 °F 76% 30.27 in 4.0 mi Calm Calm - N/A   Haze
5:53 PM 39.0 °F - 37.0 °F 93% 30.29 in 6.0 mi Calm Calm - N/A   Clear
6:53 PM 37.0 °F 33.3 °F 33.1 °F 86% 30.29 in 5.0 mi East 4.6 mph - N/A   Clear
7:53 PM 37.9 °F 34.4 °F 33.1 °F 83% 30.30 in 6.0 mi East 4.6 mph - N/A   Haze
8:53 PM 36.0 °F - 33.1 °F 89% 30.31 in 6.0 mi Calm Calm - N/A   Clear
9:53 PM 36.0 °F 31.1 °F 33.1 °F 89% 30.32 in 5.0 mi East 5.8 mph - N/A   Clear
10:53 PM 30.0 °F - 28.9 °F 96% 30.32 in 5.0 mi Calm Calm - N/A   Clear
11:53 PM 30.0 °F 26.5 °F 28.0 °F 92% 30.34 in 5.0 mi North 3.5 mph - N/A   Clear